sat.trackr.live / text

‹ back to catalog

STARCLOUD-1

NORAD 66303 · 2025-248L

PAYLOAD ACTIVE UNKNOWN

§ Identity

Operator
Country
US
Launch date
2025-11-02
Launch site
AFETR
Launch vehicle
Mass (kg)
RCS (m²)

External: N2YO · Heavens-Above · Gunter

§ Orbital elements

Epoch: 2026-09-20T20:58:36.983424Z

Period
94.60 min
Inclination
45.4026°
Eccentricity
0.0005924
Mean motion
15.22128115 rev/d
Perigee alt
495.3 km
Apogee alt
503.5 km
Semi-major
6,877.6 km
B*
1.2618e-4
RAAN
326.3175°
Arg perigee
234.4611°
Mean anomaly
125.5724°
Rev number
4,911

§ Raw data

STARCLOUD-11 66303U 25248L   26263.87403916  .00002658  00000+0  12618-3 0  99972 66303  45.4026 326.3175 0005924 234.4611 125.5724 15.22128115 49118

JSON: /api/v1/satellites/66303 · /tle

For live sub-satellite position, see the globe view (requires WebGL).

§ Visibility from observer

Set your observer location to see the next 7 days of passes ≥ 10°. The values pass through the URL so the page stays shareable.

No JS? Fill the form by hand. The geolocation button needs JavaScript.